Regional Weather Roundup
Issued by NWS

Home | Current Version | Previous Version | Text Only | Print | Product List | Glossary Off
Versions: 1 2 3 4 5 6 7 8 9 10 11 12 13 14 15 16 17 18 19 20 21 22 23 24 25 26 27 28 29 30 31 32 33 34 35 36 37 38 39 40 41 42 43 44 45 46 47 48 49 50

317
ASUS43 KLMK 220510
RWRKY
KENTUCKY REGIONAL WEATHER ROUNDUP
NATIONAL WEATHER SERVICE LOUISVILLE KY
1200 AM EST SUN JAN 22 2017

NOTE "FAIR" INDICATES FEW OR NO CLOUDS BELOW 12,000 FEET
WITH NO SIGNIFICANT WEATHER AND/OR OBSTRUCTIONS TO VISIBILITY.

KYZ001>023-026-027-061>063-070>075-220600-
WESTERN AND SOUTH CENTRAL KENTUCKY

CITY           SKY/WX    TMP DP  RH WIND       PRES   REMARKS
PADUCAH        CLEAR     58  48  69 SE3       29.54F
HENDERSON      CLOUDY    55  46  71 SE6       29.58S
OWENSBORO      CLOUDY    56  50  80 CALM      29.59F
HOPKINSVILLE   CLOUDY    58  50  75 E5        29.56F
BOWLING GREEN  PTCLDY    53  48  83 NE5       29.60F
GLASGOW        CLOUDY    52  48  86 E3        29.61F
$$

KYZ024-025-028>034-038-045-046-053-220600-
NORTH CENTRAL KENTUCKY

CITY           SKY/WX    TMP DP  RH WIND       PRES   REMARKS
LOUISVILLE/SDF CLOUDY    56  47  71 SE3       29.64S
LOUISVILLE/LOU CLOUDY    53  48  83 CALM      29.64F
FORT KNOX      CLOUDY    52  47  82 SE5       29.61F
$$

KYZ035>037-039>044-047>052-055>060-089>105-220600-
NORTHEAST KENTUCKY

CITY           SKY/WX    TMP DP  RH WIND       PRES   REMARKS
LEXINGTON      CLOUDY    55  49  80 SE6       29.67S
COVINGTON      MOCLDY    53  52  96 S5        29.66R
FRANKFORT      PTCLDY    51  47  86 S3        29.65S
$$

KYZ054-064>069-076>088-106>120-220600-
SOUTHEAST KENTUCKY

CITY           SKY/WX    TMP DP  RH WIND       PRES   REMARKS
JACKSON        CLOUDY    55  50  83 CALM      29.67R
LONDON         FOG       46  44  93 CALM      29.67S VSB 1/2
SOMERSET       CLEAR     46  46 100 CALM      29.67F
MIDDLESBORO    PTCLDY    42  42 100 CALM      29.68S FOG
MONTICELLO     CLOUDY    48  47  96 NE8       29.67F
$$





USA.gov is the U.S. government's official web portal to all federal, state and local government web resources and services.